India Forums Logo

Diya Aur Baati Hum

India Forums > Forum Index > Diya Aur Baati Hum
Diya Aur Baati Hum, is about a Sandhya's struggle, who dreams to become an IPS officer. She dreams to break the boundaries of her narrow confined existence of middle class values.
...
<< | 80 | 81 | 82 | 83 | 84 | 85 | 86 | 87 | 88 | 89 | 90 | 91 | 92 | 93 | 94 | 95 | 96 | 97 | 98 | ... >>
TIDTopic SubjectStart DateLast Entry
3427238B'Prediction+lal's truth+surya n action-edited2/7/2013 9:43:22 AM2/8/2013 7:53:30 AM
3427338Whatever I don't want this to happen!!!2/7/2013 10:20:08 AM2/8/2013 7:50:47 PM
3427346DABH WU 7th Feb. '13 Sandy's plan to expose swami2/7/2013 10:23:34 AM2/10/2013 6:27:08 AM
3427599Deepika Offscreen Pic - Sweet N Sensible smile2/7/2013 12:27:49 PM2/10/2013 6:36:37 AM
3427905Another Sa Se -S- Production!2/7/2013 10:21:18 PM2/14/2013 7:05:46 PM
3427915Anas Rashid's interview - Rose Day Special2/7/2013 10:34:06 PM2/10/2013 9:13:47 AM
3427921SurYa is in 'Tashan' - (Video interview)2/7/2013 10:38:34 PM2/12/2013 2:23:45 AM
3428359New Pic of Deepika <32/8/2013 4:10:39 AM2/11/2013 6:44:32 AM
3428498SurYa - Fav. Jodi - E24 (Video)2/8/2013 5:34:26 AM2/12/2013 2:23:06 AM
3428648Pics from sets2/8/2013 7:39:07 AM2/10/2013 7:31:23 AM
3428781Rival site: Sandhya to get a stay order on temple2/8/2013 9:02:15 AM2/10/2013 6:39:48 AM
3428788Urmila Nimbalkar (Ankita) is getting married!2/8/2013 9:07:09 AM2/8/2013 1:08:53 PM
3428799Kalyug...Ghor Kalyug!2/8/2013 9:16:18 AM2/9/2013 6:23:02 AM
3428825How many of you cannot SLEEP tonight??2/8/2013 9:30:21 AM2/8/2013 2:50:47 PM
3428861WU 8Feb13-Sandy's Attempts&Failures 2 Know Truth2/8/2013 9:47:41 AM2/19/2013 11:46:09 AM
3429343ANAS ESCAPES FIRE2/8/2013 8:59:36 PM2/10/2013 6:30:18 AM
3429369Gautam Gulati's awesome acting in new movie!!!2/8/2013 9:43:42 PM5/20/2013 3:26:49 AM
3429619SP:Will Sandy b able 2 find out Swamiji's reality?2/9/2013 2:21:27 AM2/9/2013 6:12:21 AM
3429629TOI: Mere yaar ki shadi hai-Deepika2/9/2013 2:29:36 AM2/9/2013 5:05:54 AM
3429677Pic of Anas - Master Chef - offset2/9/2013 3:21:59 AM2/12/2013 9:24:55 PM
3429898Saach Hamare Saath Hai.2/9/2013 7:31:32 AM2/10/2013 7:55:59 AM
3429923Precap - Coincidence2/9/2013 7:50:13 AM2/9/2013 3:35:42 PM
3429961*A Cracking ME*2/9/2013 8:20:24 AM2/11/2013 11:44:27 AM
3430097Which song is your Fav Celeb singing Telly Tadka2/9/2013 9:28:28 AM2/9/2013 10:47:59 AM
3430376oh oh, busted. - edited, hallelujah !2/9/2013 1:21:41 PM2/15/2013 5:47:58 PM
3430518WU 9Feb13 ME - SurYa Know Truth & Get Stay Order2/9/2013 7:09:09 PM2/19/2013 11:45:26 AM
3431069DABH VM terimeri2/10/2013 6:57:33 AM2/12/2013 7:56:14 AM
3431389Recap - Feb 8 to Feb 92/10/2013 11:34:07 AM2/11/2013 1:42:31 AM
3431434SurYa: Ek Ishq Ek Junoon2/10/2013 12:32:16 PM2/16/2013 5:33:57 AM
3431500Deepika nd Bhahasa n Urmilla(Ankita) wedding Pics2/10/2013 2:47:44 PM2/12/2013 5:12:28 AM
3431901TOI: Small screen's un-real love2/11/2013 1:22:13 AM2/19/2013 11:33:13 AM
3431971Who r more romantic here in DABH?2/11/2013 2:31:30 AM2/12/2013 5:24:21 AM
3432046Identify/Find Sandhya's eyes na-KURKURE2/11/2013 3:31:31 AM2/12/2013 3:09:25 AM
3432157~~DOTW for Feb 2nd Week~~2/11/2013 4:40:16 AM2/16/2013 12:32:37 PM
3432600Swamiji's Curse! Sabdhan SurYa!2/11/2013 9:28:43 AM2/12/2013 8:00:37 AM
3432614WU-11Feb[Swamiji curse,Sandy blamed, Mina checkup]2/11/2013 9:36:43 AM2/17/2013 6:50:01 AM
3432713How many trivial happenings??2/11/2013 10:15:13 AM2/11/2013 11:32:33 AM
3432853HT: Getting In Character - Neeluji Mentioned2/11/2013 11:23:16 AM2/17/2013 6:54:59 AM
3433132SP characters share bike safety tips (Sooraj)2/11/2013 5:19:52 PM2/11/2013 11:35:13 PM
3433285the fear of Shrap ( curse)2/11/2013 10:15:32 PM2/14/2013 8:59:37 PM
3433320why suraj not speak2/11/2013 10:47:29 PM2/14/2013 2:53:14 PM
3433440ankita bhabhi is getting married2/12/2013 12:25:10 AM2/12/2013 6:22:24 AM
3433679SBS:Bhabho's new guest changes situation of home2/12/2013 3:40:42 AM2/12/2013 4:45:07 PM
3433715Bina dialouge ka character2/12/2013 4:27:43 AM2/14/2013 8:18:36 AM
3433834Celebs on Hug Day:TB(anas)2/12/2013 6:20:16 AM2/13/2013 9:29:03 PM
3433857Rathi Family's new guest presented by Suraj ji2/12/2013 6:41:48 AM2/24/2013 8:48:09 AM
3433966Wo Ai Ni PIC Got from SP !! :)2/12/2013 7:45:28 AM2/13/2013 7:55:43 PM
3434202Prakop on Rathis!2/12/2013 9:35:17 AM2/12/2013 11:24:28 PM
3434204WU-12Feb[Investigation starts]2/12/2013 9:36:18 AM2/19/2013 11:48:47 AM
3434526Gautham Gulati movie,off screen pics,ads - FOGG2/12/2013 12:05:04 PM5/20/2013 2:36:35 AM
3434991TOI: Romantic cliches rule prime time soaps2/12/2013 11:09:43 PM2/19/2013 11:47:51 AM
3435287SBS: Valentine's Special - Nach Baliye2/13/2013 3:40:12 AM2/13/2013 3:15:40 PM
3435324Deepika's pics2/13/2013 4:10:13 AM2/17/2013 3:38:51 AM
3435517~~SurYa VM - V'day Dedication~~2/13/2013 7:10:56 AM2/14/2013 9:30:27 PM
3435576SP: The most Romantic Couples on STAR Plus are...2/13/2013 7:49:27 AM2/19/2013 10:57:48 AM
3435768*Logic win over Wrath*2/13/2013 9:29:27 AM2/14/2013 6:49:39 AM
3435821WU 13Feb13-Meena Recovers&ATM,VR,Daisa Mys. Solved2/13/2013 9:41:25 AM2/13/2013 9:15:57 PM
3436100A touch that lasts forever...2/13/2013 11:46:49 AM2/14/2013 7:20:21 AM
3436146Anas's interview-Kiss Day Sp.-Must watch (Video)2/13/2013 12:04:43 PM2/24/2013 8:49:52 AM
3436614V's Day Msg for SurYa from SS prodc+Pics2/13/2013 9:51:06 PM2/14/2013 1:26:56 AM
3436627Res2/13/2013 9:57:03 PM2/13/2013 10:01:17 PM
3436681*The Lovers of Valdaro - SurYa*2/13/2013 10:27:48 PM2/16/2013 6:55:09 AM
3436736Joru Ka Ghulam Yaa Sacha Jeevan Saathi?2/13/2013 10:59:07 PM2/14/2013 8:32:56 AM
3436768Anas aka Suraj's interview-Valentine's Day-(Video)2/13/2013 11:14:56 PM2/24/2013 8:49:35 AM
3436779TRPs 4.22/13/2013 11:23:26 PM2/16/2013 10:40:09 AM
3436789TRP Week 6 - DABH 4.2, SP#1 and All Channels #22/13/2013 11:26:46 PM2/14/2013 11:36:08 AM
3437099OMG!!! V'day promo!!! link added!!!2/14/2013 2:58:35 AM6/23/2013 8:43:27 AM
3437197SurYa - V'Day - SBS E24 (Video) updated2/14/2013 3:55:36 AM2/15/2013 10:39:46 AM
3437300DABH VM(TUJH MEIN)2/14/2013 5:31:43 AM2/14/2013 9:59:36 PM
3437386SP: STAR Plus characters' love messages (Sooraj)2/14/2013 6:17:39 AM2/14/2013 10:42:58 AM
3437394SP: Couples share Valentines' Day Plans (Sooraj)2/14/2013 6:21:19 AM2/14/2013 7:01:37 AM
3437448Rival site: DABH cast/crew celebrated V-Day on set2/14/2013 7:01:59 AM2/14/2013 9:56:20 PM
3437475deepika's pic (new more pics added)2/14/2013 7:15:39 AM2/16/2013 10:39:29 AM
3437686Precap : First Mistake- Fully Edited2/14/2013 9:00:59 AM2/15/2013 8:35:41 AM
3437773OMG! Meenu VS Bhabo!!!2/14/2013 9:37:03 AM2/15/2013 4:10:17 PM
<< | 80 | 81 | 82 | 83 | 84 | 85 | 86 | 87 | 88 | 89 | 90 | 91 | 92 | 93 | 94 | 95 | 96 | 97 | 98 | ... >>